Tracking 19415 objects as of 16-Dec-2018
HD Live streaming from Space Station
objects crossing your sky now

FENGYUN 1C DEB

Track FENGYUN 1C DEB now!
10-day predictions


NORAD ID: 31226
Int'l Code: 1999-025BLG
Perigee: 728.3 km
Apogee: 916.0 km
Inclination: 98.6 °
Period: 101.2 minutes
Semi major axis: 7193 km
RCS: 0.0061 m2 (small)
Launch date: May 10, 1999
Source: People's Republic of China (PRC)
Launch site: Taiyaun Space Center, China (TSC)

Note: This is SATELLITE DEBRIS
aabbcc
Your satellite tracking list
Your tracking list is empty




NASA's NSSDC Master Catalog

Two Line Element Set (TLE):
1 31226U 99025BLG 18346.41722743 +.00000115 +00000-0 +63533-4 0  9992
2 31226 098.6053 047.5669 0130454 111.0702 250.4483 14.23068908256564
Source of the keplerian elements: AFSPC